Probability
1 0 0 0 0 0 0 0 0 0 1 3 3 2 2 3 3 3 3 3 3 3 3 3 4 6 8 10 9 7 4 1 0 1 0 0 0 0 0 0 0 1 2
2 1 1 1 0 0 0 0 0 0 0 1 1 1 1 2 2 2 2 2 2 1 2 2 2 5 8 10 9 7 4 2 1 1 0 0 0 0 0 0 0 1 2
2 2 2 1 0 0 0 0 0 0 0 0 0 0 0 0 0 0 0 1 1 0 1 1 1 2 6 8 8 7 6 4 2 1 0 0 0 0 0 0 0 1 2
1 2 1 1 0 0 0 0 0 0 0 0 0 0 0 0 0 0 0 0 0 0 0 1 1 1 3 5 5 5 5 5 3 2 1 1 0 0 0 0 0 1 1
1 1 0 0 0 0 0 0 0 0 0 0 0 0 0 0 0 0 0 0 0 0 0 1 2 1 2 3 2 2 3 4 3 3 3 3 2 1 1 1 1 0 0
1 0 0 0 0 0 0 0 0 0 0 0 0 0 0 0 0 0 0 0 0 0 0 1 1 1 1 1 0 0 1 2 3 3 4 4 4 3 3 2 1 0 0
1 0 0 0 0 0 0 0 0 0 0 0 0 0 0 0 0 0 0 0 0 0 0 0 0 0 0 0 0 0 0 1 2 3 3 4 5 4 3 2 1 0 0
0 1 1 0 0 0 0 0 0 0 0 0 0 0 0 0 0 0 0 0 0 0 0 0 0 0 0 0 0 0 0 0 1 2 3 4 4 4 2 1 0 0 0
1 2 1 0 0 0 0 0 0 0 0 0 0 0 0 0 0 0 0 0 0 0 0 0 0 0 0 0 0 0 0 0 1 2 3 4 4 3 1 0 0 0 0
2 2 1 0 0 0 0 0 0 0 0 0 0 0 0 0 0 0 0 0 0 0 0 0 0 0 0 0 0 0 0 0 1 2 2 3 3 3 1 0 0 0 0
1 1 0 0 0 0 0 0 0 0 0 0 0 0 0 0 0 0 0 0 0 0 0 0 0 0 0 0 0 0 0 0 1 1 1 1 2 2 1 0 0 0 0
0 0 0 0 0 0 0 0 0 0 0 0 0 0 0 0 0 0 0 0 0 0 0 0 0 0 0 0 0 0 0 0 0 0 0 0 1 1 1 0 0 0 0
0 0 0 0 0 0 0 0 0 0 0 0 0 0 0 0 0 0 0 0 0 0 0 0 0 0 0 0 0 0 0 0 0 0 0 0 0 0 0 0 0 0 0
0 0 0 0 0 0 0 0 0 0 0 0 0 0 0 0 0 0 0 0 0 0 0 0 0 0 0 0 0 0 0 0 0 0 0 0 0 0 0 0 0 0 0
0 0 0 0 0 0 0 0 0 0 0 0 0 0 0 0 0 0 0 0 0 0 0 0 0 0 0 0 0 0 0 0 0 0 0 0 0 0 0 0 0 0 0
0 0 0 0 0 0 0 0 0 0 0 0 0 0 0 0 0 0 0 0 0 0 0 0 0 0 0 0 0 0 0 0 0 0 0 0 0 0 0 0 0 0 0
0 0 0 0 0 0 0 0 0 0 0 0 0 0 0 0 0 0 0 0 0 0 0 0 0 0 0 0 0 0 0 0 0 0 0 0 0 0 0 0 0 0 0
0 0 0 0 0 0 0 0 0 0 0 0 0 0 0 0 0 0 0 0 0 0 0 0 0 0 0 0 0 0 0 0 0 0 0 0 0 0 0 0 0 0 0
0 0 0 0 0 0 0 0 0 0 0 0 0 0 0 0 0 0 0 0 0 0 0 0 0 0 0 0 0 0 0 0 0 0 0 0 0 0 0 0 0 0 0
0 0 0 0 0 0 0 0 0 0 0 0 0 0 0 0 0 0 0 0 0 0 0 0 0 0 0 0 0 0 0 0 0 0 0 0 0 0 0 0 0 0 0
0 0 0 0 0 0 0 0 0 0 0 0 0 0 0 0 0 0 0 0 0 0 0 0 0 0 0 0 0 0 0 0 0 0 0 0 0 0 0 0 0 0 0
0 0 0 0 0 0 0 0 0 0 0 0 0 0 0 0 0 0 0 0 0 0 0 0 0 0 0 0 0 0 0 0 0 0 0 0 0 0 0 0 0 0 0
0 0 0 0 0 0 0 0 0 0 0 0 0 0 0 0 0 0 0 0 0 0 0 0 0 0 0 0 0 0 0 0 0 0 0 0 0 0 0 0 0 0 0
0 0 0 0 0 0 0 0 0 0 0 0 0 0 0 0 0 0 0 0 0 0 0 0 0 0 0 0 0 0 0 0 0 0 0 0 0 0 0 0 0 0 0
0 0 0 0 0 0 0 0 0 0 0 0 0 0 0 0 0 0 0 0 0 0 0 0 0 0 0 0 0 0 0 0 0 0 0 0 0 0 0 0 0 0 0
0 0 0 0 0 0 0 0 0 0 0 0 0 0 0 0 0 0 0 0 0 0 0 0 0 0 0 0 0 0 0 0 0 0 0 0 0 0 0 0 0 0 0
Wind_Speed
4 5 6 6 6 6 6 7 6 6 5 3 2 1 2 2 2 2 3 4 3 3 2 1 1 0 1 2 2 2 2 1 2 1 0 1 0 1 1 1 1 1 1
4 4 5 5 6 6 6 6 6 6 5 3 1 1 1 2 2 3 4 5 4 4 3 2 1 1 1 1 1 1 1 2 3 2 1 1 1 1 1 1 1 1 1
6 4 5 5 5 6 6 5 6 6 6 5 3 2 2 2 3 4 4 5 5 4 3 3 2 1 0 1 1 2 2 2 3 2 3 3 3 1 0 1 1 1 1
6 5 5 5 5 5 5 5 6 7 7 6 5 5 4 3 3 3 3 4 5 5 4 4 3 2 1 1 2 1 2 2 3 2 2 2 2 2 1 0 1 1 0
7 5 5 5 5 5 5 5 6 7 7 7 7 6 5 3 3 3 4 4 4 5 5 4 3 3 2 2 2 2 2 2 3 3 2 2 2 2 3 2 2 1 1
8 6 5 5 5 5 5 5 7 7 7 7 7 7 7 6 5 5 4 4 4 4 6 6 4 3 2 2 2 2 2 2 3 2 2 2 3 3 3 3 3 2 1
8 7 6 5 4 5 5 5 7 7 7 7 7 7 6 6 6 5 4 4 4 4 5 5 4 4 3 3 2 2 2 2 2 2 2 3 3 2 3 3 3 2 1
8 7 6 5 4 4 4 5 5 6 6 7 6 6 6 4 4 4 4 4 3 3 5 5 4 4 4 4 3 2 2 2 2 2 2 2 2 2 3 3 4 3 2
8 7 6 5 4 4 3 4 5 5 5 5 5 5 5 5 4 4 4 3 4 4 5 5 5 5 5 4 3 2 3 2 2 2 2 2 1 2 2 2 3 5 4
8 7 5 4 4 3 3 4 4 4 4 4 4 4 4 4 4 4 5 5 5 5 5 6 5 5 5 5 4 3 3 3 3 2 2 1 1 1 1 2 2 2 4
9 7 6 4 4 3 4 4 4 4 4 4 4 5 5 5 5 5 5 5 5 6 6 6 5 6 6 6 5 4 4 4 4 3 2 1 1 0 1 2 2 2 3
8 7 7 5 4 3 3 3 3 3 3 3 4 4 4 5 5 5 5 5 5 6 6 5 6 6 6 6 6 6 6 5 5 5 3 3 1 1 1 2 3 3 3
9 7 6 5 4 3 3 3 3 3 3 3 4 4 5 5 5 5 5 5 5 6 6 6 6 6 6 6 6 6 6 6 6 5 5 4 3 2 2 3 3 4 6
9 8 6 4 4 3 3 3 3 2 3 3 4 4 4 4 4 4 5 5 5 6 6 6 6 6 6 6 6 6 6 6 6 5 5 4 3 3 3 3 5 6 8
9 8 6 5 4 3 3 2 2 2 2 3 4 3 3 4 4 4 5 5 6 6 5 6 6 6 5 6 6 5 6 6 6 7 6 5 6 6 4 4 5 7 7
9 8 7 6 5 4 3 3 2 2 2 3 3 3 4 4 5 5 5 6 6 6 6 6 6 7 6 8 9 7 6 6 7 7 6 6 7 9 9 9 8 8 9
9 8 7 6 4 4 3 3 2 2 3 3 3 3 4 4 4 5 6 6 5 6 6 7 6 7 7 10 10 10 7 7 7 7 6 6 6 7 7 10 11 10 8
7 7 6 4 4 3 3 3 3 3 3 3 3 3 3 4 4 5 5 5 4 5 5 6 6 6 8 10 10 9 8 8 8 7 7 6 7 6 7 9 9 9 8
6 5 4 4 4 5 4 4 3 3 3 2 2 2 3 3 4 5 5 4 4 5 5 4 6 6 7 9 9 8 6 7 8 8 8 7 7 8 9 10 10 10 8
5 5 4 4 5 4 5 5 3 3 2 2 2 2 3 3 3 3 3 3 3 4 4 6 6 6 6 9 9 7 5 6 6 7 8 10 9 9 9 8 9 9 7
6 6 5 4 4 4 5 4 3 2 2 3 3 3 3 3 3 3 3 3 3 4 5 6 6 6 7 8 10 9 5 4 5 5 5 6 10 11 11 9 7 7 7
5 5 5 4 3 4 5 5 3 2 3 4 4 4 3 3 3 3 3 3 4 5 5 5 5 5 6 7 8 9 8 5 5 4 4 4 9 11 10 8 9 9 7
5 4 5 5 3 3 4 4 3 3 4 5 4 4 4 4 3 3 3 3 3 3 3 3 4 4 4 5 8 9 9 8 5 4 6 7 9 9 8 10 9 7 5
4 4 5 5 3 2 3 3 4 4 5 5 4 3 4 4 4 3 2 2 2 2 2 2 2 3 3 4 4 4 4 6 5 4 6 8 10 8 7 7 6 5 4
4 4 4 4 3 3 3 3 4 5 5 4 3 3 3 3 3 3 3 2 1 0 1 1 1 2 2 3 4 3 3 3 2 3 4 4 4 5 5 4 4 4 4
4 4 4 4 3 3 3 3 4 5 5 4 3 2 2 2 2 2 3 6 4 4 3 2 1 1 1 2 4 5 5 4 4 5 4 3 3 3 3 3 3 3 3
Wind_Direction
97 78 67 60 55 44 40 36 33 19 15 18 10 12 24 26 39 42 35 31 24 18 27 2 1 335 234 236 212 194 184 169 143 134 284 307 269 277 287 284 253 211 186
114 88 73 63 56 46 37 36 32 24 18 14 3 4 58 55 50 37 35 28 25 15 13 18 15 7 279 249 220 188 176 183 173 162 159 252 283 259 248 250 246 236 186
137 113 81 65 60 51 40 39 30 29 22 14 22 33 53 52 37 27 21 18 16 15 11 16 18 6 324 259 243 217 202 205 206 192 173 186 216 214 229 213 223 242 196
133 122 100 80 67 58 46 40 40 37 28 24 36 44 46 46 33 24 17 13 16 12 11 14 12 7 350 311 285 251 230 215 219 218 216 202 172 175 191 207 197 178 169
138 128 108 93 73 59 53 45 45 41 33 34 38 48 51 45 34 29 26 15 15 15 11 13 9 3 349 333 317 298 256 235 230 219 202 195 202 197 185 197 177 135 64
137 125 108 90 68 50 47 45 47 39 31 35 40 46 48 43 40 28 17 7 3 6 9 8 8 1 348 335 323 308 278 257 251 240 218 199 192 193 187 186 174 156 107
140 134 121 98 78 56 45 44 49 41 31 34 38 42 44 43 41 25 14 8 359 353 354 359 359 356 350 346 341 333 312 277 259 253 246 232 223 191 178 167 157 143 107
143 138 128 115 97 77 59 53 54 47 37 37 33 34 37 39 32 22 11 4 352 339 342 354 1 359 358 358 356 346 325 318 291 278 270 253 236 213 188 169 155 149 129
146 139 127 115 106 92 70 61 60 52 43 41 38 33 31 34 27 16 13 1 352 349 357 3 6 7 8 5 3 1 342 337 324 305 288 268 259 231 204 180 176 166 165
144 135 125 116 104 94 75 62 63 59 48 42 39 39 31 28 24 23 17 9 0 2 5 9 10 11 11 11 15 6 355 356 343 328 321 285 272 240 195 183 181 166 154
150 140 132 125 112 93 82 73 62 58 48 41 39 38 29 25 28 27 14 7 6 8 10 8 12 14 14 12 15 14 10 8 1 354 352 342 323 217 164 149 142 137 134
143 140 138 129 117 104 92 83 66 58 48 44 45 40 33 30 30 21 11 8 10 9 10 11 18 19 19 17 20 20 19 19 11 3 15 18 41 59 96 125 129 132 131
141 140 139 135 130 114 94 84 69 56 45 47 48 41 35 33 27 17 10 10 12 13 16 21 22 20 21 22 22 25 25 26 21 15 20 23 46 62 87 109 120 122 119
146 145 144 141 134 123 113 96 77 62 57 55 53 43 32 30 25 18 16 14 15 19 20 23 22 22 25 26 26 30 29 30 29 24 26 33 51 70 94 108 118 119 118
151 152 152 148 141 135 124 108 87 63 64 67 58 43 33 35 35 30 23 21 23 24 22 29 28 25 28 26 27 33 36 35 36 34 34 46 65 72 81 109 121 125 124
157 155 154 156 161 157 144 122 97 76 78 75 62 51 46 43 39 32 28 28 26 23 29 31 31 31 31 32 35 40 41 39 40 37 37 48 56 69 76 88 103 126 134
158 159 161 165 165 156 144 132 121 107 91 81 71 57 57 52 40 37 35 29 24 30 31 27 31 33 26 35 41 45 49 45 39 35 36 49 53 64 82 82 81 85 99
153 158 156 149 140 129 122 117 114 110 99 84 75 66 64 57 46 42 35 25 24 31 29 26 27 35 27 33 44 49 52 49 41 36 37 51 51 63 85 89 82 76 74
146 147 144 139 135 130 129 118 107 104 95 82 75 72 76 70 57 44 31 22 30 36 33 28 29 35 25 31 42 51 55 50 40 34 36 47 59 64 85 93 91 84 75
126 129 125 120 127 130 127 119 112 104 101 95 84 75 77 78 67 52 39 28 41 43 44 41 31 33 28 28 39 45 60 54 42 36 35 43 57 65 78 91 97 93 88
120 123 121 121 131 134 129 123 118 114 104 99 90 77 71 70 72 57 45 49 52 51 47 46 35 33 28 30 39 44 57 61 53 44 34 34 55 67 72 80 86 99 102
112 116 117 113 117 134 132 127 127 116 98 92 85 74 65 64 72 68 55 49 53 57 45 42 35 27 23 29 38 48 55 59 65 50 32 39 61 67 70 76 88 94 92
115 113 121 117 108 122 133 135 135 118 104 93 84 73 63 57 60 71 67 54 49 58 51 46 40 19 14 18 31 43 48 53 61 53 62 67 70 69 67 71 78 79 81
119 119 119 119 112 109 119 134 133 123 111 101 90 80 72 60 52 54 56 66 62 64 61 55 41 24 18 14 11 16 27 40 52 51 57 63 63 63 62 59 58 61 70
122 127 130 130 127 120 115 125 131 124 113 106 98 84 75 74 66 56 42 47 34 19 111 88 64 53 30 347 360 31 25 22 35 57 53 48 47 52 50 51 52 55 64
127 127 130 130 126 122 120 121 129 129 124 115 108 99 93 82 81 81 56 43 48 52 73 89 88 16 350 359 37 40 40 47 67 70 57 50 48 50 52 56 51 48 52